Wind_Speed
23 22 22 21 19 19 19 18 18 17 15 16 17 16 15 14 14 13 12 13 14 15 14 12 12 13 13 14 12 9 9 10 10 10 10 11 11 10 10 9 7 7 8 9 10 9 8 9 8 7 8 9 8 8 10 9 6 5 7 8 8 8 8 10 11 12 12 13 16 16 12 11 11 11 12 13 13 13 12 12 14 15 14 15 15
24 23 22 21 20 19 19 18 19 18 16 16 17 16 14 14 15 14 12 13 14 15 15 12 11 11 12 13 12 9 8 8 9 9 9 11 11 10 10 9 7 6 7 7 8 9 9 9 9 8 7 6 3 3 5 7 6 6 6 5 6 7 8 8 8 11 12 14 16 15 13 12 12 10 11 12 13 13 14 14 15 15 14 14 15
24 23 22 21 20 19 19 19 20 21 19 18 17 15 13 14 16 15 13 12 13 12 12 12 11 11 11 11 11 11 10 10 10 10 10 10 10 10 10 10 8 8 8 7 7 8 9 9 10 8 6 4 2 3 4 5 7 8 6 4 6 8 9 8 9 11 14 15 15 14 13 12 11 11 11 12 14 14 14 14 15 15 14 14 15
24 23 23 22 21 19 19 19 20 22 20 18 18 17 15 15 17 16 14 13 12 11 11 12 12 12 12 13 13 13 14 14 12 12 12 10 9 9 10 10 9 8 7 7 7 7 7 7 7 6 5 5 5 6 6 7 8 8 8 7 9 10 10 9 10 11 13 14 13 12 13 12 12 11 12 13 14 14 14 15 16 16 15 13 13
25 23 23 23 23 21 20 19 20 21 21 18 17 18 18 17 18 18 18 16 13 12 12 12 13 13 13 15 16 16 16 15 13 12 12 11 9 8 9 10 10 10 8 6 6 6 6 6 6 6 6 6 7 8 7 7 7 7 8 8 8 8 9 9 9 10 11 13 13 12 12 12 12 11 11 14 14 14 16 16 15 15 14 12 10
24 22 21 22 23 23 21 20 19 19 19 18 16 17 17 17 17 18 19 18 16 15 14 14 16 16 14 14 15 15 14 14 12 11 11 11 11 9 9 10 10 10 10 8 8 6 5 5 6 6 6 6 6 7 6 6 7 8 8 7 7 8 9 9 9 9 10 11 12 13 12 13 12 10 11 13 14 14 15 15 14 13 11 11 12
25 23 22 21 21 21 20 20 19 18 18 17 16 17 17 16 15 16 17 18 18 17 15 14 16 16 13 13 13 13 13 13 12 12 12 12 11 10 10 10 9 10 10 8 7 7 7 7 7 7 9 10 8 6 6 7 8 9 7 6 6 7 7 8 9 9 10 11 12 13 13 13 13 11 11 12 12 13 15 16 16 14 13 15 18
25 25 23 21 20 19 18 17 17 17 17 16 17 17 17 16 15 14 16 16 17 18 17 15 14 14 14 12 12 12 12 12 12 12 12 12 12 12 11 10 10 10 10 8 7 8 8 8 8 9 10 10 8 7 7 7 8 8 7 7 8 9 10 11 12 11 11 11 12 12 13 13 13 11 11 12 13 14 15 16 18 19 20 20 21
26 26 25 23 20 19 19 18 17 17 16 16 17 17 16 15 14 14 14 13 12 15 19 18 16 15 14 12 12 13 13 12 13 12 11 11 12 12 11 11 11 11 10 9 9 9 8 7 7 8 9 7 6 7 8 8 7 8 8 9 11 12 13 13 12 11 10 10 10 11 12 13 12 13 13 13 14 15 16 18 20 21 22 22 22
25 25 25 23 21 21 21 21 20 19 19 18 17 18 18 16 14 14 14 12 10 13 16 18 18 16 14 12 13 14 14 14 14 13 12 12 12 11 10 10 10 10 10 9 9 8 8 7 6 7 7 7 5 6 7 9 9 8 9 12 13 12 12 11 10 10 10 10 10 11 13 13 12 13 14 15 16 18 19 20 21 21 23 26 27
25 26 26 25 23 23 23 24 24 23 23 21 18 18 19 17 14 15 16 14 11 11 13 14 14 14 13 13 13 14 15 15 14 13 13 12 12 11 10 9 8 8 8 7 6 5 5 5 6 7 8 8 8 8 9 9 8 8 10 11 11 10 10 10 10 10 10 10 11 11 13 13 13 14 16 18 19 21 21 21 21 23 26 29 31
25 26 27 26 26 25 24 25 26 25 25 24 20 19 21 20 15 14 17 17 14 13 14 15 15 15 15 15 16 17 17 16 14 13 14 13 12 10 10 10 8 5 5 5 4 4 5 6 8 9 9 9 9 9 9 9 9 9 10 11 11 10 10 10 10 9 9 11 11 11 12 13 13 14 17 19 21 22 23 22 23 25 28 29 31
25 24 25 25 26 27 25 24 24 26 27 27 23 20 22 24 21 16 16 19 19 19 19 19 19 19 18 18 19 18 18 17 14 13 14 14 13 10 10 11 9 7 7 7 8 8 8 9 10 10 10 9 9 9 9 10 10 10 11 11 12 10 9 9 10 12 12 13 13 13 12 13 14 15 17 20 21 23 24 25 25 26 28 29 29
26 27 26 26 27 28 28 26 24 25 27 28 28 25 24 25 26 22 19 19 22 23 22 21 21 21 19 18 17 16 16 16 15 13 14 14 13 11 11 11 12 12 11 11 11 12 12 12 12 12 12 11 10 10 11 11 11 11 11 12 12 12 11 12 14 15 15 14 14 14 13 13 15 16 18 20 22 23 24 25 26 27 28 27 26
24 26 26 28 30 30 31 30 27 26 27 27 28 29 28 27 27 27 25 22 22 23 23 23 23 23 22 20 17 16 16 16 16 15 15 14 14 13 12 12 13 14 14 12 12 13 13 13 13 14 14 13 13 13 13 12 12 13 13 13 13 13 14 15 16 17 17 16 16 15 15 15 16 16 17 19 20 22 23 24 25 25 24 23 22
22 22 23 26 30 31 32 31 29 28 29 28 28 28 30 30 28 28 27 26 25 24 23 24 24 24 24 23 21 20 19 18 18 17 16 15 15 15 15 15 16 16 16 15 15 15 14 15 14 15 15 15 15 14 13 12 13 14 15 14 14 13 15 17 18 18 18 18 17 16 16 16 17 18 18 19 19 20 20 21 20 20 21 21 21
21 22 23 25 26 27 29 30 30 30 31 32 30 29 29 30 29 28 27 26 27 26 25 25 26 25 24 23 23 22 21 21 20 19 18 17 17 17 17 18 18 18 17 17 17 18 17 17 16 16 16 16 15 14 13 13 14 15 15 15 14 15 16 18 18 17 17 16 15 15 15 16 17 18 17 17 17 17 17 17 16 17 19 20 20
22 23 23 24 26 27 27 27 29 32 32 33 33 31 30 31 30 29 27 26 26 28 28 28 27 26 25 24 23 23 22 22 21 20 19 18 18 19 20 20 19 18 17 17 17 18 17 17 17 17 16 16 16 16 16 16 16 17 17 16 16 16 17 16 15 14 14 13 12 11 11 12 13 13 13 13 13 13 14 14 14 15 17 17 18
17 21 22 23 24 26 26 25 28 31 31 31 31 31 30 31 30 28 27 27 29 31 31 29 28 27 26 26 25 24 23 23 22 21 20 19 19 20 21 21 20 19 18 18 18 17 17 17 17 17 17 17 17 17 17 17 17 17 17 17 16 14 13 12 11 11 10 8 7 6 7 8 9 9 10 10 11 12 13 12 12 13 14 14 16
6 10 16 20 21 21 21 23 26 28 28 28 29 28 27 27 27 26 26 27 30 32 31 29 27 27 26 26 26 25 25 25 24 23 21 21 21 20 20 20 20 19 19 19 18 18 18 18 18 18 17 15 14 14 14 14 14 13 13 12 11 9 8 7 7 6 5 3 2 3 4 5 7 7 8 9 9 10 9 10 11 11 12 13 13
1 2 8 15 19 18 18 20 24 26 27 28 27 26 25 24 24 24 25 25 27 29 28 27 26 25 24 24 24 24 24 24 23 24 24 23 22 21 19 18 18 18 18 18 19 19 18 17 17 15 13 11 11 10 11 11 10 8 7 6 5 4 4 3 2 1 2 1 1 2 3 4 5 6 5 6 6 6 7 8 9 10 11 13 13
2 4 7 10 14 15 16 18 21 22 24 26 27 26 25 24 22 22 23 24 26 28 28 26 25 24 22 21 21 22 23 22 21 22 23 23 23 22 19 18 18 17 17 17 17 17 15 13 12 10 9 8 7 7 7 6 5 4 3 2 1 1 2 2 0 1 2 1 1 1 2 3 4 4 4 5 5 6 7 8 8 9 11 12 13
4 7 10 11 10 10 12 14 16 18 20 23 25 24 22 21 20 19 20 22 24 25 26 25 24 24 22 21 21 21 20 19 19 19 19 20 21 20 19 18 18 17 16 15 15 15 13 11 8 6 4 4 3 2 1 0 0 1 1 1 0 1 2 2 2 3 3 2 1 2 2 3 4 5 5 7 8 8 8 9 10 11 12 11 10
7 10 14 16 15 13 11 10 12 13 13 13 14 14 14 15 16 16 16 17 18 19 20 20 20 20 19 17 18 16 14 14 16 16 15 15 16 16 16 17 17 15 13 12 12 11 11 9 5 2 1 1 0 1 2 2 2 1 2 2 1 1 3 5 5 5 4 3 3 3 4 4 4 5 6 8 9 9 9 10 11 12 11 10 7
9 11 12 13 16 18 18 17 16 13 10 10 12 13 13 14 14 14 14 14 14 15 15 15 15 15 13 12 13 12 10 10 12 13 12 13 14 14 15 16 16 13 10 9 8 7 6 5 3 2 1 1 1 1 2 3 4 2 0 1 1 3 5 6 5 4 4 3 4 4 5 4 4 5 6 8 10 10 10 10 9 9 9 8 6
11 11 12 14 16 19 21 21 20 18 16 16 18 18 17 17 17 16 14 13 12 13 13 12 11 11 11 11 11 10 9 8 8 8 8 9 10 11 12 12 10 9 8 7 6 5 4 3 3 3 3 3 3 4 5 6 6 4 2 1 2 5 6 6 5 5 4 4 4 4 4 4 5 5 6 8 9 10 10 10 9 8 7 6 5
11 12 13 14 13 13 15 17 17 17 16 16 17 18 17 17 17 17 17 15 13 12 12 11 10 10 10 10 9 9 8 7 7 7 6 6 6 7 7 5 5 6 6 6 5 4 4 4 6 7 7 8 8 8 9 8 8 5 1 1 3 5 7 7 7 7 6 5 5 4 3 4 5 5 5 6 7 9 9 10 10 10 10 9 8
9 9 11 10 7 7 10 12 12 13 14 14 15 16 15 13 13 14 14 14 13 12 12 11 11 10 9 8 8 8 8 7 6 6 6 6 6 6 6 5 5 6 6 6 6 6 6 9 11 11 10 10 11 12 11 8 7 5 3 2 2 4 5 6 6 6 6 5 5 3 4 5 6 6 6 7 7 8 9 10 11 12 13 13 14
10 11 11 9 6 7 8 8 7 7 7 8 11 13 13 12 11 11 11 11 9 8 7 7 8 9 8 7 7 7 7 7 6 5 5 5 5 4 4 4 4 5 5 6 8 9 10 12 12 11 11 11 11 11 10 8 7 6 5 5 6 6 6 6 6 6 6 5 4 5 6 7 8 8 9 9 9 10 11 12 12 13 14 15 16
12 13 12 9 7 8 8 5 4 4 4 3 6 9 10 10 11 11 11 10 9 6 5 5 6 6 5 4 5 5 4 5 5 3 2 2 2 2 3 3 4 5 7 9 11 13 12 12 11 11 11 11 10 8 7 6 6 6 6 7 8 9 8 8 7 6 6 5 5 6 7 9 9 10 10 11 11 12 12 12 13 14 16 17 18
12 11 8 6 5 6 6 5 4 5 6 4 2 4 5 6 10 12 10 10 10 8 7 8 9 9 6 5 5 5 4 3 2 2 2 2 1 0 2 4 6 8 10 12 13 13 11 10 10 9 9 9 8 7 5 4 4 5 6 7 8 9 9 9 8 7 7 7 6 7 9 10 10 11 11 12 12 13 13 14 14 16 17 18 20
13 11 8 6 6 5 5 4 4 5 6 6 1 3 3 4 7 9 8 8 8 8 8 8 9 9 8 7 7 6 6 5 5 5 5 4 2 1 3 6 9 12 13 14 14 12 10 9 9 8 6 6 6 5 4 3 3 4 5 6 6 8 9 9 9 9 8 7 6 8 10 11 11 12 13 13 14 14 15 15 16 17 18 19 19
14 13 11 9 8 6 5 4 4 5 7 8 6 5 5 5 4 2 4 6 6 5 6 6 6 7 7 7 7 7 7 7 6 5 4 2 1 3 6 8 11 12 12 12 13 12 10 9 8 7 6 4 3 3 3 3 3 4 4 5 5 7 8 9 9 9 7 6 6 8 10 11 12 13 14 15 16 16 16 17 18 18 19 20 21
12 12 11 11 10 8 6 5 5 6 6 6 5 4 5 6 6 6 4 2 1 1 3 4 5 6 7 8 8 8 7 7 6 4 2 2 4 6 7 9 10 10 10 10 10 10 9 7 7 6 5 4 3 3 3 2 3 4 5 5 5 6 7 8 9 8 6 5 5 6 8 11 13 15 16 17 18 18 18 18 19 19 20 21 22
10 11 11 11 11 10 9 7 5 4 5 5 4 3 5 6 7 7 6 5 5 4 2 2 3 4 5 6 7 8 7 6 4 2 4 6 7 7 7 6 6 6 7 6 6 6 5 4 4 4 3 3 3 3 3 3 5 6 6 6 5 5 6 7 8 8 7 6 6 7 9 12 14 16 17 18 19 19 19 19 19 20 21 21 20
11 12 12 13 12 12 11 10 8 6 7 8 7 6 7 6 5 4 4 3 4 5 4 4 6 6 3 1 2 3 4 4 3 5 9 10 10 10 8 6 4 3 3 3 3 4 3 3 3 3 3 3 3 3 3 4 5 6 5 4 4 4 5 5 6 8 8 8 9 10 11 13 14 15 17 17 18 19 19 20 21 22 21 21 20
12 12 13 13 13 13 12 11 10 9 9 10 9 8 8 8 6 4 2 1 2 2 4 4 4 5 4 2 5 7 8 7 8 10 12 12 11 11 9 7 6 4 4 4 4 4 3 2 2 1 0 0 1 1 2 2 3 4 3 2 2 3 3 4 7 8 8 10 11 12 13 14 15 16 17 18 19 20 20 21 22 22 21 20 20
11 12 14 14 14 14 14 14 13 13 12 12 11 10 9 9 9 7 3 1 2 1 2 1 1 4 6 5 9 12 13 13 14 13 13 11 10 10 9 7 5 5 5 4 4 3 2 1 0 1 2 3 2 2 1 1 1 1 1 2 4 5 5 6 9 10 11 12 13 13 14 15 16 17 18 19 20 21 22 23 23 23 23 23 22
10 11 13 15 15 15 14 14 14 14 13 13 12 12 12 11 10 9 6 2 1 0 1 1 1 1 4 5 8 10 12 14 15 14 12 10 8 8 9 8 6 5 4 3 4 4 3 3 4 5 5 5 4 4 4 4 4 3 3 5 7 8 8 9 10 12 12 13 14 14 15 16 17 18 19 20 22 24 24 24 24 23 22 21 20
12 13 14 15 15 15 14 13 12 12 12 12 11 11 12 12 10 9 8 5 2 3 4 2 1 1 1 2 4 5 7 11 13 14 13 11 7 7 8 7 6 6 5 4 5 4 4 6 6 6 7 7 6 6 7 6 7 7 8 9 10 11 11 11 12 13 14 15 16 17 18 19 20 21 22 22 22 23 22 22 21 20 18 16 15
13 14 15 16 16 16 15 14 13 12 11 12 12 11 11 12 11 10 10 7 4 7 7 5 3 2 2 2 2 2 5 9 11 11 11 10 7 7 8 7 6 7 6 6 6 6 6 7 8 8 9 9 9 9 10 9 9 10 11 11 11 12 13 13 13 14 14 15 17 18 20 21 22 23 22 21 21 20 20 20 20 19 17 16 15
14 14 14 15 16 17 17 16 15 12 9 10 12 10 8 9 10 11 11 8 4 6 8 8 6 6 6 8 9 7 7 10 9 8 8 9 8 7 8 7 7 8 7 6 6 6 7 8 9 10 10 11 11 11 11 11 10 11 12 12 12 13 14 15 15 16 17 17 18 19 20 21 21 21 21 20 20 20 20 19 19 18 17 16 16
15 15 15 14 13 15 16 16 14 12 10 9 10 9 10 11 12 13 13 10 5 3 5 6 5 7 9 9 5 5 11 13 10 7 9 10 9 8 8 7 8 9 8 8 7 8 9 10 11 11 12 12 11 11 12 12 12 12 13 13 14 14 15 15 16 18 18 19 19 20 20 20 20 19 19 19 19 19 19 19 18 17 15 15 15
15 15 14 13 12 12 15 15 14 13 12 10 9 10 12 13 13 13 14 13 8 3 2 3 5 6 5 0 8 12 13 12 10 9 10 11 10 10 10 10 10 11 11 11 11 12 12 13 13 13 13 13 13 13 13 14 14 14 14 14 14 14 15 15 16 17 18 19 19 19 19 19 18 18 18 18 18 18 19 18 17 16 15 15 15
15 13 11 11 10 11 14 15 14 14 12 10 11 13 13 13 13 12 12 13 11 6 2 3 4 3 2 8 12 12 10 11 11 11 11 11 11 11 11 11 12 12 13 14 14 14 14 13 13 13 12 12 12 13 13 14 14 14 14 14 13 13 13 13 14 15 16 17 17 17 18 18 18 17 17 17 17 18 18 17 15 14 15 15 15
16 14 12 9 8 11 16 16 14 14 12 10 11 13 13 11 12 11 10 10 11 10 6 4 5 5 5 7 8 8 9 10 11 12 12 12 12 12 12 13 13 13 14 14 14 14 13 13 12 12 11 11 11 11 12 13 13 12 13 13 12 11 11 12 12 13 14 15 16 17 17 18 17 17 17 17 17 17 17 15 14 14 14 15 15
15 17 14 9 6 11 15 14 12 12 13 12 11 13 12 11 11 12 11 8 10 11 9 7 7 6 5 7 8 9 10 10 10 11 11 12 12 12 12 11 11 11 11 11 11 11 11 10 10 9 9 9 9 9 10 12 12 11 12 12 11 11 12 12 13 14 14 14 15 16 17 17 17 17 17 17 17 17 16 15 14 14 14 15 16
15 17 14 9 9 13 14 12 11 13 15 14 13 13 12 11 12 14 12 10 12 13 11 8 8 8 10 11 11 10 9 9 9 9 10 10 10 10 10 10 9 9 8 7 7 7 6 6 5 5 6 7 8 7 7 9 10 11 11 11 11 12 13 13 13 13 13 13 15 15 16 17 17 16 16 16 16 17 16 15 14 14 14 15 16
15 18 15 12 12 14 14 13 13 14 14 13 13 12 10 10 12 13 13 13 14 13 11 9 9 11 12 12 12 10 9 9 9 9 9 9 9 9 9 8 7 6 5 5 5 5 3 2 2 2 4 5 6 6 7 7 8 9 10 11 11 12 13 13 13 12 12 13 13 14 14 15 14 14 14 15 16 17 16 15 14 14 14 15 17
17 19 18 16 16 17 17 16 15 14 13 12 11 11 11 12 14 13 11 11 13 13 12 11 13 14 13 13 12 11 9 9 8 8 8 8 7 6 5 5 6 7 7 6 6 5 3 3 3 3 4 4 5 6 7 8 8 9 10 10 11 12 12 12 11 11 11 12 13 14 14 14 13 13 13 14 16 17 16 14 13 14 16 17 19
20 21 20 19 18 18 18 17 16 15 14 12 11 11 12 15 15 13 9 9 12 14 13 13 14 14 12 11 11 10 9 8 8 7 7 8 7 7 7 8 9 9 8 6 5 4 2 2 4 5 5 5 5 6 7 8 8 9 10 10 11 12 12 11 11 12 12 13 14 14 14 14 13 13 14 14 16 16 15 14 14 15 17 19 20
Wind_Direction
195 196 194 194 194 194 194 193 191 189 188 189 191 193 193 189 187 193 199 195 191 199 211 213 208 202 198 204 210 208 202 199 200 197 192 200 207 201 204 213 215 218 221 217 213 212 217 231 245 243 238 241 236 229 229 219 219 270 289 283 283 289 296 302 306 313 323 323 320 326 332 328 326 325 322 323 322 320 325 332 330 327 325 330 342
198 198 195 195 198 197 196 195 190 187 189 192 193 195 195 187 184 192 200 202 203 206 211 212 205 197 195 205 209 203 210 217 209 204 200 200 209 213 213 220 230 234 232 228 227 225 224 235 251 257 253 249 247 251 229 207 217 273 298 292 276 275 280 287 296 303 306 307 311 321 331 333 339 342 339 340 342 339 337 343 347 345 343 347 354
201 201 198 196 199 199 198 197 192 188 192 195 193 194 195 187 185 193 201 209 212 210 209 208 204 200 195 196 200 203 223 232 217 215 219 210 210 216 216 221 230 234 234 238 239 236 236 243 254 261 255 233 260 309 276 227 232 253 272 282 267 265 273 281 287 289 292 298 308 321 332 339 345 347 348 353 352 346 346 357 5 2 356 353 351
202 205 201 196 198 200 201 201 196 192 193 194 191 191 198 197 191 192 199 211 217 212 207 204 204 207 199 194 198 205 220 231 225 220 226 224 218 216 215 223 234 238 235 234 236 237 239 243 254 266 264 243 247 262 261 262 261 250 251 264 264 263 269 274 279 282 289 299 310 324 334 338 340 345 356 1 359 358 358 360 359 356 353 347 343
204 208 205 199 197 201 203 201 200 197 194 195 195 195 200 204 199 193 194 201 208 211 211 207 208 214 208 202 207 210 216 226 227 222 225 228 228 225 222 227 237 244 248 246 243 246 249 256 262 267 272 262 243 239 245 261 266 259 261 267 264 267 275 278 281 285 292 302 311 323 332 333 336 351 2 354 345 347 351 352 349 346 344 338 334
206 209 209 205 202 204 204 200 200 201 196 196 201 203 206 211 208 199 197 198 200 208 214 210 208 215 219 214 215 216 215 222 225 224 225 228 230 229 228 231 234 237 242 245 246 246 250 265 271 268 275 283 267 252 252 255 260 268 276 274 265 269 278 283 285 288 295 300 306 317 327 332 337 352 357 344 336 337 339 338 336 336 333 323 319
207 209 211 212 207 205 205 201 199 202 201 197 201 207 210 215 214 204 200 203 205 209 213 209 208 217 225 226 224 220 218 222 225 223 221 225 230 230 230 234 236 236 242 246 244 244 243 253 264 264 263 269 272 265 257 256 262 272 283 286 279 277 283 293 299 303 308 310 312 318 324 327 331 337 337 331 330 332 329 324 324 323 316 310 312
207 210 212 214 211 205 205 205 201 202 206 202 202 211 216 218 221 214 210 214 215 212 211 212 216 221 225 228 229 227 222 221 223 223 220 222 228 232 233 235 237 242 248 251 249 250 249 250 258 262 260 261 265 264 263 266 268 272 286 299 299 297 297 301 306 311 314 316 318 321 321 323 326 326 320 317 315 315 313 312 314 312 308 308 312
207 211 211 214 214 208 203 205 205 203 210 211 207 213 221 224 227 225 223 228 226 215 212 214 220 223 224 226 229 232 230 224 223 225 222 221 227 234 238 238 241 246 249 252 254 253 252 257 266 270 269 265 265 267 274 283 280 274 284 297 302 301 297 296 300 306 311 314 318 323 324 328 332 329 325 325 319 311 308 307 308 309 310 311 313
208 212 213 214 215 211 205 205 206 204 209 216 214 214 221 227 229 229 230 230 228 223 216 214 218 224 229 233 231 231 232 229 227 227 225 225 229 235 241 243 245 250 253 258 263 259 253 257 273 283 278 267 263 270 282 289 288 280 279 285 292 294 292 290 293 300 307 314 320 325 326 330 335 332 329 325 316 310 309 310 311 314 316 317 318
201 203 205 207 211 212 210 209 208 205 207 213 214 212 218 226 226 224 228 228 227 230 221 213 217 226 234 239 235 231 233 233 230 228 228 228 225 228 238 244 246 254 258 261 269 271 262 258 268 277 276 268 263 259 258 262 266 268 268 274 281 284 286 290 295 301 310 313 316 318 318 321 324 323 317 309 306 307 309 312 314 317 320 321 322
190 191 195 201 209 214 216 215 212 210 210 212 211 207 214 224 223 213 218 221 219 220 220 216 220 226 227 229 229 230 236 238 235 233 232 228 223 226 238 245 248 254 257 260 267 271 268 262 260 264 267 272 270 260 250 250 258 264 266 272 276 277 282 292 293 294 298 298 299 301 302 304 306 305 301 299 300 305 309 312 313 315 318 321 321
196 197 200 207 215 220 223 221 217 215 214 215 214 209 211 221 225 214 206 209 209 212 216 216 217 218 216 219 227 232 237 240 241 241 236 229 226 228 235 242 246 246 248 255 257 260 267 268 268 272 276 278 273 263 260 264 267 269 273 278 280 276 278 285 285 287 291 292 295 298 298 297 297 294 294 296 300 303 306 310 311 313 316 317 318
205 207 209 217 224 228 229 227 222 219 219 219 218 217 216 220 225 222 212 204 204 209 212 211 212 215 217 220 227 232 237 240 243 243 238 233 232 232 233 236 240 245 250 253 251 252 255 259 266 276 280 279 276 272 271 271 269 269 275 281 282 277 275 280 285 290 292 292 295 300 300 299 298 296 296 298 300 302 305 308 310 312 314 315 317
212 212 213 220 226 229 230 229 225 223 223 221 219 220 220 221 224 226 223 216 211 211 214 215 217 221 226 230 231 230 233 240 244 244 241 238 238 238 236 233 235 244 252 254 252 251 253 257 265 273 277 280 283 280 274 270 269 271 275 277 277 275 276 281 286 289 290 291 294 299 300 299 297 295 296 298 300 302 304 307 309 311 312 315 318
216 216 216 221 225 227 229 229 227 225 224 223 222 223 223 222 223 226 227 228 228 224 222 224 227 230 234 236 235 233 235 239 243 243 242 241 240 239 238 237 238 245 251 252 250 250 253 256 261 268 273 278 282 280 272 269 270 271 271 272 274 273 273 277 281 284 286 288 291 294 296 295 293 293 296 300 301 302 303 304 307 310 314 320 326
216 218 218 219 221 225 227 228 228 227 225 225 227 227 225 225 226 226 228 230 234 234 232 232 234 237 237 237 236 236 239 241 241 241 239 239 241 242 241 242 244 247 251 252 250 250 254 258 261 266 270 273 275 275 273 274 276 274 273 274 275 274 273 276 279 281 281 283 287 291 292 291 292 296 301 304 305 305 307 309 314 319 324 329 333
217 220 220 218 220 224 226 227 228 227 226 229 231 229 226 227 228 228 229 232 235 237 236 234 235 237 238 238 237 237 239 241 242 241 239 239 241 244 246 247 247 249 251 249 247 250 255 260 264 267 268 269 270 270 272 277 280 279 279 279 280 280 280 281 282 281 281 283 285 287 286 287 293 302 306 308 309 312 316 319 323 326 329 334 337
216 219 219 219 222 224 223 222 224 225 225 228 230 227 225 226 227 228 231 232 233 236 236 235 235 236 237 239 239 239 240 242 242 241 242 244 245 246 247 248 248 249 250 247 245 249 254 259 264 267 267 268 269 271 276 281 284 286 288 288 286 284 284 286 288 289 290 287 280 274 278 287 296 303 306 309 314 322 325 326 327 331 337 345 349
215 217 213 212 214 213 211 211 215 220 224 227 230 228 225 224 224 225 227 226 228 231 234 234 234 233 232 234 237 239 239 240 240 240 242 245 245 244 245 247 247 246 246 246 247 249 252 256 260 263 265 268 273 279 285 291 294 297 299 295 289 284 286 291 294 300 305 297 267 255 271 288 294 297 305 314 325 335 335 328 330 340 348 352 354
182 155 189 206 210 208 208 209 212 217 223 227 229 227 225 225 224 220 219 219 223 227 230 232 233 231 230 232 235 236 236 236 237 239 240 241 239 238 239 241 242 242 242 245 249 252 254 256 258 261 265 272 280 289 297 302 305 306 304 300 292 288 296 296 287 318 348 3 199 221 242 270 287 300 316 325 334 341 332 325 335 346 348 345 344
139 135 163 195 207 209 212 214 216 220 222 225 228 226 224 227 226 220 218 219 222 226 228 229 231 232 232 234 236 238 237 234 231 231 232 233 234 236 237 236 236 235 235 239 244 248 252 255 256 260 268 279 291 303 309 307 303 294 286 282 278 300 308 286 255 41 22 36 166 222 243 273 297 315 326 319 317 321 319 323 334 338 339 339 339
133 144 147 151 165 189 206 213 213 213 215 220 224 221 217 216 217 217 218 218 220 223 224 223 226 229 233 233 233 233 231 227 224 221 221 223 227 230 232 231 228 227 228 232 237 240 244 246 249 258 272 288 301 318 340 9 251 278 267 240 144 3 311 284 320 355 345 326 314 299 305 327 330 325 320 309 309 320 324 325 328 329 332 336 336
125 133 133 134 137 146 161 176 185 193 200 204 201 194 190 193 195 197 201 205 211 215 216 214 214 217 219 218 218 218 213 209 211 208 202 206 214 220 225 225 221 220 221 223 226 231 234 233 227 219 223 249 283 82 97 115 127 167 260 263 246 263 274 287 314 327 318 314 328 330 339 353 344 326 318 313 318 329 332 329 330 330 330 333 334
108 108 108 116 122 122 122 127 134 139 136 126 124 133 145 155 161 165 171 179 190 195 196 197 197 200 201 197 197 198 190 189 198 194 184 186 194 202 213 215 208 199 197 199 203 207 209 205 185 162 166 166 108 86 97 123 127 123 267 291 272 266 280 303 326 326 314 326 344 345 351 355 338 320 316 317 322 329 331 331 333 332 329 332 333
92 91 93 105 115 119 118 119 123 126 124 118 117 122 128 133 137 140 143 149 160 169 171 172 176 180 181 176 172 171 165 165 175 178 181 189 190 196 213 216 197 177 173 177 186 192 189 169 147 144 137 120 101 88 90 101 100 86 46 338 307 296 303 331 352 348 345 353 354 355 355 341 327 322 319 320 326 330 332 335 338 337 338 340 337
76 82 93 101 107 114 117 119 124 129 128 124 122 123 126 130 131 130 129 130 137 144 147 149 153 159 167 168 160 151 148 151 153 150 156 170 171 178 197 201 175 167 170 171 180 192 181 152 143 139 133 124 115 107 107 109 106 100 90 316 317 312 319 340 349 344 348 357 357 360 350 323 321 332 333 331 335 335 337 342 345 348 351 351 347
92 94 94 88 85 100 110 115 122 128 130 131 129 128 129 132 134 133 131 129 132 139 143 142 144 153 166 172 163 150 146 150 155 152 150 154 156 163 173 176 176 179 178 175 176 172 160 153 149 145 144 143 137 132 135 141 139 140 163 227 280 295 304 316 320 324 341 356 353 341 321 316 332 346 345 344 347 348 350 355 354 354 354 351 348
115 119 113 105 113 123 113 103 104 108 120 139 146 142 142 144 145 145 144 139 136 142 150 149 147 155 164 165 159 153 143 137 139 143 148 157 167 180 188 189 188 186 180 168 161 155 154 158 159 155 153 156 155 150 150 158 166 172 194 236 263 277 288 299 311 329 350 354 340 324 322 332 346 350 346 350 356 356 356 357 354 351 349 346 345
118 124 128 129 138 140 129 114 92 65 62 108 154 155 153 159 164 162 160 161 160 160 170 174 167 169 178 168 154 156 153 139 128 116 111 134 157 182 190 180 172 168 162 156 153 154 157 163 168 169 167 169 176 179 176 176 184 197 218 243 263 280 297 310 325 350 3 357 344 334 332 340 348 346 345 350 351 349 349 348 345 343 341 339 338
136 135 135 123 115 127 131 121 95 67 50 47 128 158 141 152 171 175 174 173 172 168 168 168 166 175 197 211 202 200 211 217 233 307 335 353 5 228 183 172 167 163 160 160 161 163 165 168 172 175 177 179 185 196 205 207 205 211 229 249 268 288 304 318 337 0 7 1 352 340 337 342 343 339 339 342 341 338 339 337 335 334 333 331 332
152 146 141 124 109 117 128 111 82 72 58 43 67 178 152 135 163 177 181 179 176 175 176 173 171 176 189 202 210 218 231 247 262 283 310 332 335 206 162 161 166 168 168 172 171 168 166 170 170 169 171 175 180 191 212 229 233 236 246 261 283 303 315 326 341 355 1 1 353 345 342 340 335 331 332 332 330 330 330 328 325 324 323 323 325
161 153 150 144 136 132 131 115 82 68 60 57 76 113 108 89 91 140 187 194 198 202 204 205 205 204 206 213 220 231 244 254 263 281 301 309 238 166 153 158 169 175 180 185 182 175 170 171 171 173 180 184 191 212 235 256 272 274 277 292 313 322 326 331 339 350 360 359 350 343 338 328 321 321 321 321 323 325 324 322 322 323 324 325 327
173 166 166 167 165 161 154 141 117 93 77 70 74 83 84 81 70 60 70 111 148 241 241 245 249 248 249 249 247 250 257 259 264 279 267 189 168 153 148 154 164 171 179 187 186 180 181 183 183 190 200 204 213 235 250 273 283 285 302 328 338 333 333 338 342 351 2 356 339 331 323 315 313 315 317 318 321 322 322 324 328 333 334 333 332
185 182 184 189 191 191 189 188 180 157 143 144 143 123 105 96 74 52 48 58 58 50 28 346 333 305 278 263 254 254 256 257 254 222 165 155 149 139 133 136 148 161 171 180 180 178 185 193 197 210 224 228 238 254 272 294 298 301 320 344 349 340 344 348 342 338 341 333 313 304 302 303 307 311 314 316 318 321 323 328 333 335 334 333 332
196 193 192 197 203 207 206 204 203 194 181 177 171 155 141 131 104 59 33 31 43 45 33 10 5 359 346 285 232 223 216 208 179 153 149 148 143 133 122 115 120 134 137 133 145 161 175 187 198 211 222 223 234 258 280 291 298 309 330 352 352 341 346 341 323 321 324 314 299 294 295 299 305 309 311 314 317 320 322 324 327 330 331 330 330
214 214 210 206 210 215 213 208 206 204 199 195 190 178 169 167 160 134 83 316 287 3 20 15 13 16 26 95 136 135 133 130 130 136 144 149 146 139 132 127 126 121 102 92 102 122 136 137 139 150 185 268 269 275 278 282 297 317 342 353 323 310 308 299 296 300 300 292 287 289 293 298 303 306 307 310 312 313 314 318 321 325 327 325 324
223 233 233 226 221 221 222 222 224 226 223 216 211 208 206 197 181 160 125 12 285 294 18 38 55 24 32 94 134 129 118 115 119 127 137 143 145 145 145 145 146 137 124 123 137 147 142 124 56 325 317 317 309 288 257 246 275 310 330 286 273 268 265 273 285 290 292 291 292 295 298 301 303 303 303 305 307 309 312 315 316 318 318 316 316
221 230 233 231 230 230 228 227 229 232 233 228 224 225 224 211 190 175 165 124 62 227 238 190 173 35 39 87 116 116 116 121 122 122 128 138 151 162 166 172 180 178 169 181 199 204 220 255 282 291 291 291 287 276 267 262 259 256 254 257 264 267 266 268 275 282 289 295 298 301 304 305 304 304 305 306 308 310 312 313 316 318 317 316 316
224 226 227 229 231 230 229 229 225 219 216 211 206 210 213 205 190 180 178 176 197 237 245 246 187 161 125 116 108 103 121 132 128 128 139 151 161 171 172 176 189 198 204 218 228 242 261 271 279 284 284 283 282 276 271 268 263 262 262 264 270 279 282 281 280 280 283 288 292 294 297 299 300 302 305 308 310 313 317 321 324 327 329 328 327
227 224 223 226 229 228 229 231 225 215 215 217 211 208 209 202 189 176 172 176 213 239 237 238 243 228 209 218 225 191 153 143 132 135 157 174 180 183 185 192 210 217 216 220 227 239 253 260 264 268 269 272 276 276 276 273 268 266 266 266 271 279 284 285 286 285 284 285 288 290 293 298 304 310 315 319 322 325 328 330 331 333 335 334 330
228 227 225 226 227 227 228 229 226 224 228 221 206 204 209 203 191 185 178 173 193 230 227 230 245 257 269 278 277 260 209 176 155 152 177 193 198 198 198 203 215 220 221 226 237 251 262 267 272 275 275 277 282 285 286 284 279 274 272 272 273 278 283 287 290 291 292 294 297 301 306 312 320 327 332 335 336 335 335 336 336 337 337 335 333
227 230 232 231 230 227 227 229 230 225 214 192 186 201 214 208 202 202 196 183 174 210 223 224 245 273 288 294 283 207 185 182 178 181 194 201 200 193 190 198 214 225 233 241 251 265 275 278 280 282 283 285 288 290 290 291 290 287 287 288 289 290 291 294 297 301 306 312 318 322 327 331 335 338 340 340 340 339 339 339 338 338 339 339 340
220 227 233 239 239 230 223 222 220 210 197 190 200 215 214 206 205 208 203 196 191 190 217 230 253 281 296 150 135 145 159 172 180 189 198 206 206 199 199 212 227 237 246 254 260 269 276 279 279 280 282 285 290 292 293 294 294 296 299 302 304 303 303 307 313 318 323 328 331 333 336 338 340 340 339 338 339 338 337 337 339 338 339 341 342
217 225 234 241 239 222 212 208 202 194 193 204 217 217 213 215 217 209 199 198 199 193 195 242 244 244 168 139 141 148 163 178 188 199 210 219 222 221 224 235 244 252 262 269 274 277 280 279 278 279 281 285 290 294 295 295 297 303 311 317 321 322 322 326 332 335 336 337 336 337 338 339 340 340 338 336 336 335 334 337 340 338 335 335 336
218 219 225 239 233 207 197 193 189 190 200 216 220 210 207 214 214 198 187 195 198 192 192 200 180 156 145 152 164 179 193 197 203 215 224 231 238 244 249 255 262 269 276 281 282 282 281 279 281 284 289 295 301 305 306 306 309 319 329 338 343 344 342 342 343 343 341 340 339 339 340 340 339 339 337 336 336 336 336 338 340 337 333 333 333
219 213 220 232 208 179 180 183 189 200 209 212 209 205 206 207 200 188 183 186 184 183 194 206 196 185 195 200 195 197 202 207 216 226 234 242 251 257 262 269 277 283 288 289 287 281 275 275 280 288 296 306 314 316 316 316 322 334 343 347 348 346 344 344 344 344 344 343 342 341 340 339 339 338 338 338 338 339 339 339 340 338 334 333 332
218 208 209 205 175 172 182 193 201 207 211 213 216 216 211 199 190 188 189 184 172 170 181 200 206 206 206 202 199 201 208 218 230 241 249 258 266 273 283 292 295 296 298 296 290 283 275 277 291 304 311 317 324 325 319 318 325 334 338 338 336 337 339 342 344 345 346 344 342 340 338 338 339 339 340 342 344 344 344 344 344 341 337 334 332
206 193 191 188 185 189 197 202 203 205 209 214 216 212 195 176 176 186 196 196 187 181 184 193 200 203 203 205 211 221 227 232 237 244 251 261 273 285 296 302 303 306 312 310 301 293 278 257 264 300 310 314 319 321 316 314 319 324 324 325 329 334 339 342 343 346 346 342 339 338 338 339 340 342 345 348 349 348 348 349 349 346 342 336 332
198 187 183 186 193 195 192 195 205 212 210 207 208 204 194 187 190 197 205 205 198 195 197 199 201 206 211 217 225 234 240 240 241 246 255 264 273 279 281 284 294 305 309 306 302 300 280 232 231 247 266 285 301 309 312 315 319 320 320 323 328 333 338 341 341 341 340 338 338 340 341 341 343 347 348 348 346 345 347 351 351 345 338 331 328
198 195 190 191 198 199 193 194 204 206 200 201 211 208 194 188 190 197 203 195 188 191 196 202 206 211 217 226 236 245 248 250 255 259 258 252 246 244 250 261 274 283 287 289 291 298 295 263 251 250 252 257 271 287 300 312 321 323 323 325 328 330 333 336 336 337 339 341 343 343 341 340 342 344 343 342 340 341 347 352 348 339 332 329 327
Height
1565 1567 1569 1570 1572 1573 1574 1576 1578 1579 1581 1582 1583 1584 1586 1587 1588 1590 1591 1592 1593 1593 1594 1595 1596 1597 1598 1599 1599 1600 1601 1601 1602 1603 1604 1605 1605 1606 1606 1607 1608 1608 1609 1609 1609 1610 1610 1610 1610 1611 1611 1611 1611 1611 1611 1612 1612 1612 1612 1612 1612 1611 1611 1610 1610 1609 1608 1608 1607 1607 1606 1605 1604 1604 1603 1602 1601 1601 1600 1599 1598 1597 1596 1595 1594
1564 1566 1568 1569 1570 1572 1574 1575 1577 1578 1580 1581 1582 1583 1585 1586 1587 1589 1590 1591 1592 1593 1594 1594 1595 1596 1597 1598 1599 1599 1600 1601 1601 1602 1603 1604 1604 1605 1605 1606 1607 1607 1608 1608 1609 1609 1609 1609 1609 1609 1610 1610 1610 1610 1610 1611 1611 1611 1611 1611 1611 1611 1610 1610 1609 1608 1608 1607 1607 1606 1605 1604 1603 1603 1602 1601 1600 1599 1598 1598 1597 1596 1595 1594 1593
1563 1565 1567 1568 1570 1571 1573 1574 1576 1578 1579 1580 1581 1582 1584 1585 1586 1588 1589 1590 1590 1592 1593 1593 1594 1595 1596 1597 1598 1599 1600 1600 1601 1601 1602 1603 1604 1604 1605 1605 1606 1606 1607 1607 1608 1608 1608 1609 1609 1609 1609 1609 1609 1609 1610 1610 1610 1610 1610 1610 1610 1610 1609 1609 1608 1608 1607 1606 1606 1605 1604 1603 1602 1602 1601 1600 1599 1598 1597 1597 1596 1595 1594 1593 1592
1563 1564 1566 1567 1569 1570 1572 1573 1575 1577 1578 1579 1581 1582 1583 1584 1585 1587 1587 1588 1589 1590 1591 1592 1593 1594 1595 1596 1597 1598 1599 1600 1600 1601 1601 1602 1603 1603 1604 1604 1605 1605 1606 1606 1606 1607 1607 1607 1608 1608 1608 1608 1608 1608 1609 1609 1609 1609 1609 1609 1608 1608 1608 1608 1607 1607 1606 1605 1605 1604 1603 1602 1601 1601 1600 1599 1598 1597 1597 1596 1595 1594 1593 1592 1591
1561 1563 1565 1567 1568 1569 1571 1572 1574 1576 1577 1579 1580 1581 1582 1583 1584 1585 1586 1587 1588 1589 1590 1591 1592 1593 1594 1595 1596 1597 1598 1599 1599 1600 1601 1601 1602 1602 1603 1604 1604 1604 1605 1605 1605 1606 1606 1606 1606 1607 1607 1607 1607 1607 1608 1608 1608 1608 1608 1608 1607 1607 1607 1607 1606 1606 1605 1604 1603 1603 1602 1601 1600 1600 1599 1598 1597 1596 1596 1595 1594 1593 1592 1591 1590
1560 1562 1564 1565 1567 1568 1570 1572 1573 1575 1576 1578 1579 1580 1581 1582 1583 1584 1585 1586 1587 1587 1588 1590 1590 1591 1593 1594 1594 1595 1596 1597 1598 1599 1600 1600 1601 1601 1602 1603 1603 1603 1604 1604 1604 1605 1605 1605 1605 1606 1606 1606 1606 1606 1607 1607 1607 1607 1607 1607 1606 1606 1606 1605 1605 1605 1604 1603 1603 1602 1601 1600 1599 1598 1598 1597 1596 1595 1594 1593 1593 1592 1591 1590 1589
1560 1561 1563 1564 1566 1568 1569 1571 1573 1575 1576 1577 1579 1580 1580 1581 1582 1583 1584 1584 1585 1586 1587 1588 1589 1590 1591 1592 1593 1594 1595 1596 1597 1598 1598 1599 1600 1600 1601 1601 1602 1602 1603 1603 1603 1604 1604 1604 1604 1604 1605 1604 1605 1605 1605 1606 1606 1606 1606 1606 1605 1605 1605 1604 1604 1604 1603 1602 1602 1601 1600 1599 1598 1597 1597 1596 1595 1594 1593 1591 1591 1590 1589 1588 1587
1559 1561 1563 1564 1566 1568 1570 1572 1573 1575 1576 1577 1578 1579 1580 1581 1581 1582 1583 1583 1584 1585 1586 1587 1588 1589 1590 1591 1592 1593 1594 1595 1596 1596 1597 1598 1598 1599 1599 1600 1601 1601 1602 1602 1602 1603 1603 1603 1603 1603 1603 1603 1603 1603 1604 1605 1605 1605 1605 1605 1604 1604 1604 1603 1603 1602 1602 1601 1600 1600 1599 1598 1597 1596 1595 1594 1594 1593 1591 1590 1589 1588 1587 1586 1586
1559 1561 1563 1565 1566 1568 1570 1572 1573 1574 1575 1576 1577 1578 1579 1580 1580 1581 1582 1583 1583 1584 1586 1587 1587 1588 1589 1590 1591 1592 1592 1593 1594 1595 1596 1596 1597 1598 1598 1599 1599 1600 1600 1601 1601 1601 1601 1602 1602 1602 1602 1602 1602 1602 1603 1603 1603 1603 1604 1603 1603 1603 1602 1602 1601 1601 1600 1599 1599 1598 1598 1597 1596 1595 1594 1593 1592 1591 1590 1589 1588 1586 1585 1584 1584
1560 1562 1564 1565 1567 1568 1570 1571 1572 1573 1574 1575 1576 1577 1577 1578 1579 1580 1581 1582 1582 1583 1584 1585 1586 1587 1588 1588 1589 1590 1591 1592 1593 1594 1595 1595 1596 1596 1597 1597 1598 1598 1599 1599 1600 1600 1600 1601 1600 1600 1600 1600 1600 1600 1601 1602 1602 1602 1602 1602 1602 1601 1601 1600 1600 1599 1599 1598 1598 1597 1596 1596 1595 1594 1593 1592 1591 1590 1589 1587 1586 1585 1583 1581 1580
1558 1561 1563 1564 1566 1567 1568 1569 1570 1571 1571 1572 1574 1575 1576 1576 1578 1579 1580 1581 1582 1582 1583 1584 1585 1586 1586 1587 1588 1588 1589 1590 1591 1592 1593 1594 1595 1595 1595 1596 1597 1597 1597 1598 1598 1598 1599 1599 1598 1598 1599 1599 1599 1599 1599 1600 1600 1600 1600 1600 1600 1600 1599 1599 1598 1598 1597 1596 1596 1596 1595 1594 1594 1593 1592 1590 1589 1588 1587 1586 1585 1583 1582 1579 1577
1555 1558 1561 1563 1564 1564 1566 1567 1568 1569 1570 1571 1572 1573 1573 1574 1575 1577 1578 1579 1581 1581 1581 1582 1583 1584 1585 1585 1586 1586 1587 1588 1590 1591 1591 1592 1593 1594 1594 1595 1595 1596 1596 1596 1597 1597 1597 1597 1597 1597 1597 1597 1598 1598 1598 1598 1598 1598 1599 1598 1598 1598 1597 1597 1596 1596 1595 1594 1594 1594 1593 1592 1592 1591 1590 1588 1587 1586 1585 1585 1584 1582 1580 1579 1576
1556 1560 1562 1562 1562 1563 1564 1565 1566 1568 1569 1570 1571 1571 1572 1572 1573 1574 1576 1577 1579 1579 1579 1579 1580 1581 1582 1583 1584 1585 1586 1587 1588 1589 1590 1590 1591 1592 1593 1593 1594 1594 1595 1594 1595 1594 1594 1595 1595 1595 1596 1596 1596 1597 1597 1597 1597 1597 1597 1597 1597 1597 1596 1595 1594 1594 1593 1592 1592 1592 1591 1590 1589 1588 1587 1586 1585 1585 1583 1583 1582 1580 1579 1577 1575
1556 1558 1559 1560 1561 1561 1563 1564 1565 1567 1567 1568 1569 1569 1570 1571 1571 1573 1574 1575 1577 1577 1577 1577 1578 1579 1579 1581 1582 1584 1585 1586 1587 1587 1588 1589 1590 1590 1591 1592 1592 1592 1592 1592 1593 1593 1593 1593 1593 1593 1594 1594 1595 1595 1595 1595 1595 1595 1595 1595 1595 1595 1594 1593 1592 1592 1591 1591 1590 1590 1589 1588 1587 1586 1586 1585 1584 1583 1582 1580 1579 1578 1576 1575 1573
1552 1554 1557 1558 1558 1559 1561 1562 1564 1565 1565 1566 1567 1567 1568 1568 1569 1571 1573 1574 1575 1575 1575 1576 1576 1577 1578 1579 1580 1581 1583 1584 1585 1586 1586 1587 1588 1588 1589 1590 1590 1590 1590 1590 1591 1590 1591 1591 1591 1592 1592 1592 1593 1593 1593 1593 1593 1593 1593 1593 1593 1593 1592 1591 1590 1590 1589 1589 1588 1588 1587 1586 1585 1584 1584 1583 1582 1581 1580 1578 1577 1575 1574 1573 1572
1548 1552 1556 1557 1557 1558 1559 1560 1561 1562 1562 1563 1564 1565 1565 1566 1567 1569 1571 1572 1573 1573 1574 1574 1575 1575 1576 1577 1578 1578 1580 1581 1583 1584 1585 1585 1586 1586 1587 1587 1587 1587 1588 1588 1589 1589 1589 1589 1589 1589 1590 1590 1590 1590 1591 1591 1591 1591 1591 1591 1591 1591 1590 1589 1588 1588 1587 1587 1586 1586 1585 1584 1583 1582 1582 1581 1580 1579 1578 1576 1575 1574 1572 1571 1570
1545 1548 1552 1554 1555 1556 1556 1557 1558 1558 1559 1560 1561 1562 1563 1563 1564 1567 1569 1570 1570 1570 1572 1572 1573 1573 1573 1574 1575 1576 1577 1579 1580 1581 1582 1583 1583 1584 1584 1585 1585 1585 1586 1586 1587 1587 1587 1587 1587 1587 1588 1588 1588 1588 1588 1588 1588 1588 1589 1589 1589 1588 1587 1587 1587 1586 1586 1585 1584 1584 1583 1581 1581 1580 1580 1579 1578 1577 1576 1574 1573 1571 1570 1569 1567
1543 1546 1548 1550 1550 1551 1553 1555 1555 1555 1556 1557 1558 1559 1560 1560 1561 1564 1566 1568 1568 1568 1569 1569 1570 1570 1571 1572 1573 1573 1574 1576 1577 1579 1580 1580 1581 1581 1582 1582 1583 1583 1584 1584 1585 1585 1585 1585 1585 1585 1585 1585 1586 1586 1586 1586 1586 1586 1586 1586 1586 1585 1585 1585 1585 1584 1584 1583 1582 1581 1580 1579 1579 1579 1578 1577 1576 1575 1574 1572 1571 1569 1568 1567 1566
1540 1543 1546 1547 1547 1548 1550 1552 1553 1553 1554 1554 1553 1555 1556 1556 1558 1561 1564 1565 1564 1564 1565 1566 1566 1567 1568 1569 1570 1571 1572 1573 1575 1576 1577 1578 1578 1578 1579 1580 1580 1581 1581 1582 1582 1583 1583 1583 1583 1583 1583 1583 1583 1583 1583 1583 1583 1583 1583 1583 1583 1583 1582 1582 1582 1582 1581 1581 1580 1579 1578 1578 1578 1578 1576 1575 1574 1574 1572 1571 1569 1568 1567 1566 1564
1538 1541 1544 1545 1545 1546 1548 1550 1550 1551 1552 1550 1549 1550 1552 1553 1556 1559 1560 1560 1560 1560 1561 1562 1563 1564 1566 1567 1567 1568 1570 1571 1572 1573 1574 1574 1575 1576 1577 1578 1578 1578 1578 1579 1580 1580 1580 1581 1581 1581 1581 1581 1581 1581 1581 1581 1581 1581 1581 1581 1581 1580 1580 1580 1580 1580 1579 1578 1577 1577 1576 1576 1575 1575 1574 1574 1573 1572 1571 1570 1568 1567 1566 1565 1564
1537 1540 1543 1544 1544 1545 1546 1547 1548 1549 1549 1547 1547 1548 1549 1550 1553 1556 1557 1557 1557 1558 1559 1559 1561 1562 1563 1564 1565 1565 1567 1568 1569 1570 1571 1572 1572 1573 1574 1575 1576 1576 1576 1576 1577 1577 1578 1578 1579 1579 1579 1580 1580 1580 1580 1579 1579 1579 1579 1579 1579 1579 1578 1579 1578 1578 1577 1577 1575 1575 1574 1574 1573 1573 1572 1572 1571 1570 1570 1569 1568 1567 1565 1564 1563
1538 1540 1541 1542 1543 1544 1545 1546 1547 1548 1547 1546 1546 1547 1548 1549 1550 1552 1554 1555 1556 1557 1557 1557 1559 1560 1561 1562 1563 1564 1564 1565 1566 1567 1568 1568 1569 1570 1571 1572 1573 1573 1573 1574 1574 1575 1575 1576 1577 1577 1578 1578 1579 1579 1578 1578 1578 1577 1577 1577 1577 1577 1577 1577 1577 1577 1576 1575 1574 1573 1572 1572 1572 1571 1571 1570 1569 1569 1568 1568 1567 1566 1565 1564 1562
1540 1540 1541 1542 1542 1543 1544 1545 1546 1546 1545 1545 1545 1545 1546 1547 1548 1550 1552 1553 1554 1555 1555 1556 1558 1559 1560 1560 1561 1562 1562 1563 1564 1564 1564 1565 1566 1567 1568 1569 1570 1570 1571 1572 1572 1573 1574 1574 1575 1576 1576 1577 1577 1577 1577 1577 1576 1576 1575 1575 1576 1576 1576 1576 1575 1575 1575 1574 1573 1572 1571 1571 1570 1570 1569 1567 1567 1567 1566 1566 1565 1565 1564 1563 1562
1541 1541 1542 1542 1542 1543 1544 1545 1546 1545 1545 1544 1544 1544 1545 1546 1547 1548 1550 1551 1553 1553 1554 1555 1557 1558 1558 1559 1560 1560 1561 1561 1562 1562 1562 1563 1564 1565 1566 1567 1568 1568 1568 1569 1571 1572 1572 1573 1573 1574 1575 1576 1576 1576 1576 1576 1576 1575 1574 1574 1575 1575 1574 1574 1574 1574 1573 1572 1571 1570 1570 1569 1569 1568 1567 1566 1565 1565 1564 1564 1563 1563 1562 1562 1561
1543 1543 1543 1543 1543 1543 1544 1544 1545 1545 1545 1545 1545 1545 1546 1546 1547 1548 1549 1550 1552 1553 1553 1555 1556 1557 1557 1558 1559 1559 1560 1560 1561 1561 1561 1562 1562 1563 1564 1564 1565 1566 1567 1568 1569 1570 1571 1571 1572 1573 1574 1574 1574 1574 1575 1575 1575 1574 1573 1573 1573 1573 1573 1573 1573 1572 1571 1570 1569 1569 1568 1568 1567 1567 1566 1565 1564 1564 1563 1562 1562 1561 1560 1560 1559
1545 1545 1545 1545 1545 1546 1545 1545 1546 1546 1547 1547 1547 1547 1548 1548 1548 1549 1549 1550 1552 1553 1554 1554 1555 1556 1556 1557 1558 1559 1559 1560 1560 1561 1562 1561 1561 1562 1563 1563 1564 1564 1565 1566 1568 1569 1570 1570 1571 1573 1573 1573 1573 1574 1574 1574 1574 1573 1572 1572 1572 1571 1571 1572 1571 1570 1569 1569 1568 1567 1567 1566 1566 1566 1565 1564 1563 1562 1561 1561 1560 1559 1558 1558 1557
1546 1546 1547 1547 1548 1548 1548 1548 1548 1548 1549 1549 1549 1549 1549 1549 1550 1550 1550 1551 1552 1554 1555 1555 1555 1556 1556 1556 1557 1558 1559 1560 1561 1562 1562 1562 1562 1563 1563 1564 1564 1565 1565 1566 1568 1569 1570 1570 1571 1571 1571 1571 1572 1572 1573 1573 1573 1573 1571 1571 1571 1570 1570 1570 1570 1568 1568 1567 1567 1566 1566 1565 1565 1564 1564 1563 1562 1561 1560 1559 1558 1557 1556 1555 1554
1547 1547 1548 1548 1548 1549 1550 1551 1551 1551 1552 1552 1551 1551 1551 1552 1552 1552 1552 1552 1553 1554 1555 1555 1556 1556 1556 1556 1557 1558 1558 1559 1560 1561 1562 1562 1562 1563 1564 1564 1565 1565 1565 1566 1567 1569 1569 1570 1570 1570 1569 1569 1569 1570 1571 1572 1572 1571 1570 1570 1570 1570 1569 1569 1568 1568 1567 1567 1566 1565 1564 1564 1563 1563 1562 1561 1560 1560 1559 1558 1557 1555 1554 1553 1552
1547 1548 1549 1549 1548 1548 1550 1551 1552 1552 1553 1553 1553 1553 1553 1553 1554 1554 1554 1553 1554 1555 1556 1556 1557 1557 1557 1557 1558 1558 1558 1559 1560 1561 1561 1562 1563 1563 1564 1564 1565 1565 1565 1566 1567 1568 1568 1568 1568 1568 1568 1568 1568 1569 1570 1570 1571 1570 1569 1569 1569 1568 1568 1568 1567 1567 1567 1566 1565 1563 1563 1562 1562 1561 1560 1559 1559 1558 1557 1556 1555 1554 1553 1552 1550
1548 1549 1549 1549 1548 1548 1549 1550 1551 1552 1553 1553 1553 1553 1553 1554 1554 1555 1555 1554 1555 1556 1557 1557 1558 1558 1559 1559 1559 1559 1559 1559 1560 1560 1561 1562 1563 1563 1564 1564 1564 1565 1565 1566 1566 1567 1567 1567 1567 1567 1567 1567 1567 1568 1568 1569 1570 1569 1568 1568 1567 1567 1567 1567 1566 1566 1566 1564 1563 1562 1561 1561 1560 1559 1558 1558 1557 1557 1556 1555 1554 1553 1552 1550 1549
1547 1548 1548 1548 1548 1548 1550 1550 1550 1551 1552 1553 1553 1553 1553 1553 1554 1555 1555 1555 1555 1556 1557 1558 1558 1559 1560 1559 1559 1559 1560 1560 1560 1561 1561 1562 1562 1563 1563 1564 1564 1564 1564 1565 1565 1565 1566 1566 1566 1565 1566 1566 1566 1567 1567 1567 1568 1568 1567 1567 1566 1566 1565 1565 1565 1565 1564 1563 1562 1561 1560 1559 1559 1558 1557 1557 1556 1555 1555 1554 1553 1552 1550 1549 1548
1546 1546 1546 1547 1547 1548 1549 1550 1550 1551 1552 1552 1553 1553 1553 1553 1554 1555 1555 1555 1555 1556 1557 1558 1559 1559 1559 1560 1559 1559 1560 1560 1560 1561 1561 1561 1562 1562 1563 1563 1563 1564 1564 1564 1564 1564 1564 1565 1565 1565 1565 1565 1565 1566 1566 1566 1566 1566 1566 1566 1566 1565 1564 1564 1564 1564 1563 1562 1561 1560 1559 1558 1557 1556 1556 1555 1554 1554 1553 1552 1551 1550 1549 1548 1547
1545 1545 1545 1545 1546 1547 1548 1549 1550 1551 1552 1553 1553 1552 1552 1553 1554 1555 1556 1556 1555 1556 1557 1558 1558 1558 1559 1559 1559 1559 1559 1560 1560 1561 1561 1561 1562 1562 1563 1563 1563 1563 1563 1563 1563 1563 1563 1563 1564 1564 1564 1564 1564 1565 1565 1565 1565 1565 1565 1565 1565 1564 1564 1563 1563 1563 1563 1562 1561 1559 1558 1557 1556 1555 1555 1554 1553 1552 1552 1550 1550 1549 1548 1546 1545
1545 1544 1544 1544 1545 1546 1547 1548 1550 1550 1552 1553 1553 1552 1552 1553 1553 1554 1555 1555 1555 1556 1556 1557 1557 1557 1558 1558 1558 1558 1559 1559 1560 1560 1561 1561 1561 1562 1562 1562 1562 1562 1563 1563 1563 1563 1563 1563 1563 1563 1563 1563 1563 1563 1563 1564 1564 1564 1564 1564 1564 1564 1563 1563 1562 1562 1562 1561 1560 1558 1557 1555 1554 1554 1553 1552 1552 1551 1550 1549 1548 1547 1546 1545 1544
1545 1544 1544 1544 1544 1544 1545 1547 1548 1550 1552 1553 1553 1552 1552 1553 1553 1554 1554 1554 1554 1555 1556 1556 1556 1556 1556 1556 1557 1557 1557 1558 1559 1560 1560 1561 1561 1561 1562 1562 1562 1562 1562 1562 1562 1562 1562 1562 1562 1562 1562 1562 1562 1562 1563 1563 1563 1563 1563 1564 1563 1563 1563 1562 1561 1561 1560 1559 1558 1557 1555 1554 1553 1553 1552 1551 1550 1550 1549 1548 1548 1547 1545 1544 1543
1544 1544 1544 1543 1543 1543 1543 1545 1547 1549 1551 1552 1552 1552 1552 1552 1553 1553 1553 1553 1554 1555 1555 1556 1556 1556 1555 1555 1555 1555 1556 1557 1558 1559 1560 1561 1561 1562 1562 1561 1561 1561 1561 1561 1561 1560 1560 1560 1560 1560 1560 1561 1562 1562 1562 1562 1562 1562 1562 1562 1562 1562 1561 1560 1560 1559 1559 1558 1557 1555 1554 1554 1553 1552 1551 1551 1550 1549 1548 1547 1547 1546 1544 1543 1542
1544 1544 1543 1543 1543 1543 1543 1543 1545 1548 1550 1550 1551 1552 1552 1552 1553 1553 1553 1553 1554 1554 1555 1555 1555 1555 1555 1555 1555 1555 1556 1556 1558 1559 1560 1560 1561 1561 1561 1560 1560 1560 1560 1560 1559 1559 1559 1559 1559 1560 1560 1560 1561 1561 1561 1561 1561 1561 1561 1561 1560 1560 1560 1559 1558 1558 1557 1556 1555 1554 1554 1553 1553 1552 1551 1550 1549 1548 1547 1546 1545 1544 1543 1542 1540
1543 1543 1542 1542 1542 1542 1542 1543 1544 1546 1548 1549 1549 1550 1551 1552 1553 1553 1554 1553 1553 1553 1554 1553 1553 1554 1555 1555 1555 1555 1556 1556 1557 1558 1559 1560 1560 1560 1560 1559 1559 1559 1559 1559 1559 1559 1559 1559 1559 1559 1559 1559 1559 1559 1559 1559 1559 1559 1560 1559 1559 1558 1558 1558 1557 1556 1556 1555 1554 1553 1553 1553 1552 1551 1550 1549 1548 1546 1545 1544 1543 1542 1541 1540 1538
1540 1540 1541 1541 1540 1541 1541 1542 1542 1543 1545 1546 1547 1548 1549 1551 1552 1552 1553 1554 1553 1552 1552 1552 1552 1554 1555 1556 1556 1557 1557 1557 1557 1558 1559 1559 1559 1559 1559 1558 1558 1558 1559 1559 1559 1559 1559 1559 1559 1558 1558 1558 1558 1558 1558 1558 1558 1558 1558 1557 1556 1556 1557 1557 1556 1555 1554 1554 1553 1553 1552 1551 1550 1549 1548 1547 1546 1544 1543 1542 1541 1539 1538 1537 1536
1538 1538 1539 1539 1539 1539 1540 1541 1542 1542 1543 1545 1546 1547 1548 1550 1551 1551 1552 1553 1553 1552 1551 1552 1552 1553 1554 1555 1556 1557 1558 1558 1557 1557 1558 1558 1558 1558 1558 1558 1558 1558 1558 1558 1558 1558 1558 1558 1557 1557 1557 1557 1557 1557 1557 1557 1557 1557 1556 1555 1555 1554 1555 1555 1554 1554 1553 1552 1552 1551 1550 1549 1548 1547 1546 1545 1543 1542 1540 1539 1538 1537 1535 1534 1533
1536 1536 1537 1537 1538 1538 1539 1540 1541 1542 1542 1544 1545 1546 1547 1549 1550 1550 1551 1552 1552 1551 1551 1552 1553 1553 1553 1554 1555 1557 1558 1558 1557 1557 1557 1557 1557 1557 1557 1557 1556 1556 1556 1556 1556 1556 1556 1556 1556 1556 1556 1556 1556 1556 1555 1556 1556 1555 1554 1554 1554 1553 1553 1553 1552 1552 1551 1551 1550 1549 1547 1546 1545 1544 1543 1542 1540 1539 1538 1537 1535 1534 1533 1532 1531
1534 1534 1534 1535 1536 1537 1537 1538 1539 1541 1542 1543 1543 1545 1546 1547 1548 1549 1550 1550 1550 1549 1550 1551 1552 1552 1552 1552 1553 1554 1556 1556 1557 1557 1556 1556 1555 1555 1555 1555 1555 1555 1555 1555 1555 1555 1555 1555 1555 1555 1555 1555 1555 1554 1554 1554 1554 1553 1553 1553 1553 1552 1551 1550 1550 1549 1548 1548 1547 1546 1544 1543 1542 1541 1539 1538 1537 1536 1535 1534 1533 1532 1531 1530 1529
1533 1533 1533 1533 1534 1535 1536 1537 1538 1540 1541 1542 1542 1543 1544 1546 1547 1548 1549 1549 1549 1548 1549 1550 1550 1550 1551 1550 1550 1551 1552 1554 1555 1555 1555 1554 1554 1555 1555 1555 1555 1554 1555 1555 1555 1555 1555 1554 1554 1554 1553 1553 1553 1552 1552 1552 1552 1551 1551 1551 1551 1550 1549 1548 1547 1546 1545 1544 1544 1543 1541 1540 1539 1538 1537 1536 1535 1534 1533 1531 1530 1530 1529 1528 1528
1531 1531 1532 1532 1533 1534 1535 1536 1538 1539 1540 1541 1541 1542 1542 1543 1544 1546 1547 1548 1548 1547 1547 1548 1548 1548 1549 1549 1549 1549 1550 1551 1553 1553 1553 1553 1554 1554 1555 1555 1554 1554 1554 1554 1555 1555 1554 1553 1553 1553 1552 1552 1551 1551 1550 1549 1549 1549 1549 1549 1548 1547 1546 1545 1545 1544 1543 1542 1541 1540 1539 1538 1537 1536 1535 1534 1533 1532 1531 1530 1529 1528 1528 1527 1527
1530 1530 1530 1531 1532 1533 1534 1535 1537 1538 1539 1540 1540 1541 1541 1542 1542 1543 1545 1547 1547 1547 1547 1547 1546 1547 1548 1548 1549 1549 1549 1551 1552 1552 1553 1552 1553 1553 1554 1554 1554 1553 1553 1553 1553 1553 1553 1552 1551 1551 1551 1550 1550 1549 1548 1547 1547 1547 1547 1546 1545 1545 1544 1543 1543 1542 1541 1541 1540 1538 1538 1537 1536 1535 1534 1533 1532 1531 1529 1529 1528 1527 1527 1527 1526
1529 1529 1528 1529 1530 1531 1532 1534 1536 1537 1538 1539 1539 1539 1540 1540 1541 1542 1544 1545 1546 1547 1547 1546 1546 1546 1547 1548 1548 1549 1549 1550 1551 1552 1552 1552 1552 1552 1553 1553 1553 1553 1552 1552 1552 1552 1551 1550 1550 1549 1549 1549 1548 1547 1546 1545 1545 1545 1545 1544 1544 1543 1542 1542 1542 1541 1540 1539 1538 1537 1536 1535 1535 1534 1533 1531 1530 1529 1528 1528 1527 1527 1526 1526 1525
1528 1527 1527 1528 1528 1529 1531 1534 1535 1536 1537 1538 1537 1538 1539 1539 1540 1541 1543 1543 1545 1546 1546 1546 1546 1546 1546 1547 1547 1548 1549 1550 1550 1551 1550 1550 1550 1551 1551 1551 1551 1551 1551 1550 1550 1549 1549 1549 1548 1548 1548 1547 1547 1546 1545 1544 1543 1544 1543 1543 1542 1542 1542 1541 1541 1540 1539 1538 1537 1536 1535 1534 1533 1533 1532 1530 1529 1528 1527 1527 1526 1526 1526 1525 1524
1526 1527 1527 1527 1528 1529 1531 1533 1534 1535 1536 1536 1536 1537 1538 1538 1539 1541 1542 1542 1543 1544 1544 1545 1545 1545 1546 1546 1547 1548 1549 1549 1549 1549 1549 1549 1549 1549 1549 1549 1549 1549 1548 1548 1548 1547 1547 1547 1547 1547 1546 1546 1546 1545 1544 1543 1543 1543 1542 1542 1542 1541 1541 1540 1540 1539 1538 1538 1537 1536 1535 1534 1533 1532 1530 1529 1528 1527 1526 1526 1525 1525 1525 1524 1523
1524 1525 1526 1527 1528 1529 1530 1531 1533 1533 1534 1535 1536 1536 1537 1538 1539 1540 1541 1542 1543 1543 1543 1544 1544 1545 1545 1546 1547 1548 1548 1548 1548 1548 1548 1547 1547 1547 1547 1546 1546 1546 1546 1546 1546 1546 1546 1546 1546 1546 1546 1545 1545 1544 1544 1543 1542 1542 1541 1541 1541 1540 1540 1539 1539 1538 1538 1537 1536 1535 1534 1533 1532 1531 1530 1529 1528 1527 1525 1525 1524 1524 1524 1523 1521
1523 1524 1524 1525 1526 1527 1527 1529 1530 1532 1533 1535 1536 1536 1537 1537 1538 1538 1539 1541 1542 1542 1542 1543 1543 1544 1545 1545 1546 1547 1547 1547 1547 1547 1547 1546 1546 1546 1545 1545 1545 1545 1545 1545 1545 1545 1545 1545 1545 1545 1545 1544 1543 1543 1542 1542 1542 1541 1541 1540 1540 1539 1539 1538 1538 1537 1537 1536 1535 1534 1533 1532 1531 1530 1529 1528 1527 1526 1525 1524 1523 1523 1522 1521 1520
1521 1523 1523 1523 1524 1524 1525 1526 1528 1530 1532 1534 1535 1536 1536 1537 1537 1537 1538 1540 1541 1542 1542 1542 1542 1543 1544 1545 1545 1546 1546 1546 1546 1546 1546 1545 1545 1545 1545 1545 1545 1545 1545 1544 1544 1543 1543 1543 1543 1543 1543 1543 1542 1542 1541 1541 1540 1540 1540 1539 1539 1538 1538 1538 1537 1536 1535 1534 1533 1532 1531 1530 1529 1529 1528 1527 1526 1525 1524 1523 1522 1522 1521 1519 1518